Showing default

LEMUR-2 DELOITTE-3, 68471

Orbit data source: Space-Track

LEMUR-2 DELOITTE-3, 68471 is an American payload satellite in SSO that was launched on Mon, 30 Mar 2026 UTC via an FALCON 9 launch vehicle from the Air Force Western Test Range (AFWTR). Payload-class satellites include a variety of spacecraft equipped with specific instruments for various scientific and technological missions. These include communications satellites like Starlink; space stations such as the ISS; scientific satellites like the Hubble; Earth observation satellites from companies like Planet Labs, Umbra, and HawkEye 360; GPS; miniature CubeSats for education and research; and military/defense satellites.

Loading next visibility...
Identifier
68471, 2026-067BH
Orbit
SSO
Country
Flag of USUS
Related business
Manufacturer
Spire/Glasgow
Mission
Operational Commercial Com/MetRO
Bus & Motor
CUBESAT 6U, Unknown motor
Mass
10 kg wet, 10 kg dry
Launch date (UTC)
2026-03-30 (5 months ago)
Launch vehicle
FALCON 9
Launch site
Air Force Western Test Range (AFWTR)
Object type
Payload
Rocket body
Debris
Shape & HBR
Box, 0.2 m
Radar Cross Section
0.080 m², Medium (>0.1 m² and < 1m²)

Expand to show TLE details & history
Last TLE update: 16 hours ago

TLE from 16 hours ago
0 LEMUR-2 DELOITTE-3
1 68471U 26067BH  26228.44431647  .00002831  00000-0  28462-3 0  9999
2 68471  97.7623 185.6828 0003046 180.4993 179.6224 14.92015870 20715
Epoch: 2026-08-16T10:39Z
TLE epoch observation values (Epoch: 2026-08-16T10:39:48.943Z)
Latitude
0.00007°
Longitude
60.88811°
Altitude
596.816 km
Speed
7.56 km/s
True Right ascension
12h 22m 43s
True Declination
0° 00' 00"
Sunlit
Object was in daylight at epoch
Visualization orbit readout
Latitude
Unknown
Longitude
Unknown
Altitude
Unknown
Speed
Unknown
Apparent Right ascension
Unknown
Apparent Declination
Unknown
Sunlit
N/A
Visualization observer readout
Local Sidereal Time
16:57:58
Azimuth
Unknown
Elevation
Unknown
Doppler factor
Unknown
Orbital elements
Apogee altitude
590.791 km
Perigee altitude
586.547 km
Semi-major axis
6,966.806 km
Eccentricity
0.0003
Inclination
97.7623°
RAAN
185.6828°
Arg. of periapsis
180.4993°
True anomaly
179.62263°
Mean anomaly
179.6224°
Eccentric anomaly
179.62251°
Mean motion
3.73244 °/min
Orbital period
96.45 mins
BSTAR
0.00028462
Loading maneuver chart data...
Computing Atmospheric mass density...
Loading historical data...
Loading historical data...
Loading historical data...
Loading historical data...
Loading historical data...
Loading historical data...
Loading historical data...

Documentation

Showing up to 5 results
|